This demonstration page uses our WeatherBlox Daily Observations layout. Learn more.

Left ArrowRight Arrow

Hourly Observations for January 16, 2015

Temp ( °F °C ) Dew Point ( °F °C ) Humidity (%) Winds ( mph kmh ) Pressure ( in mb ) Visibility ( mi km ) Precip ( " mm )
12:53 am 00:53 Partly Cloudy 35 1.7 31 -0.6 85 85 WNW 9 15 30.17 1022 10 16 0.00 0.00
1:17 am 01:17 Mostly Cloudy 35 1.7 30 -1.1 82 82 NW 8 13 30.21 1023 10 16 0.00 0.00
1:53 am 01:53 Cloudy 35 1.7 31 -0.6 85 85 NW 9 15 30.17 1022 10 16 0.00 0.00
2:53 am 02:53 Cloudy 35 1.7 30 -1.1 82 82 NW 10 17 30.17 1022 10 16 0.00 0.00
3:53 am 03:53 Mostly Cloudy 34 1.1 29 -1.7 82 82 NNW 9 15 30.17 1022 10 16 0.00 0.00
4:28 am 04:28 Partly Cloudy 34 1 28 -2 81 81 NW 8 13 30.21 1023 10 16 0.00 0.00
4:53 am 04:53 Clear 33 0.6 29 -1.7 85 85 NW 5 7 30.17 1022 10 16 0.00 0.00
5:53 am 05:53 Clear 33 0.6 28 -2.2 82 82 NW 3 6 30.17 1022 9 14 0.00 0.00
6:53 am 06:53 Clear 33 0.6 27 -2.8 78 78 Calm 30.19 1023 10 16 0.00 0.00
7:53 am 07:53 Sunny 32 0 26 -3.3 79 79 NNW 6 9 30.21 1023 10 16 0.00 0.00
8:53 am 08:53 Sunny 34 1.1 27 -2.8 76 76 NNW 7 11 30.22 1024 10 16 0.00 0.00
9:53 am 09:53 Sunny 38 3.3 29 -1.7 70 70 NW 9 15 30.24 1024 10 16 0.00 0.00
10:53 am 10:53 Sunny 41 5 29 -1.7 62 62 NNW 9 15 30.25 1025 10 16 0.00 0.00
11:53 am 11:53 Sunny 45 7.2 29 -1.7 54 54 NW 12 19 30.24 1024 10 16 0.00 0.00
12:53 pm 12:53 Sunny 48 8.9 28 -2.2 46 46 NNW 10 17 30.21 1023 10 16 0.00 0.00
1:53 pm 13:53 Sunny 51 10.6 28 -2.2 41 41 NNW 7 11 30.18 1022 10 16 0.00 0.00
2:53 pm 14:53 Sunny 52 11.1 27 -2.8 38 38 N 9 15 30.16 1022 10 16 0.00 0.00
3:53 pm 15:53 Sunny 52 11.1 26 -3.3 37 37 NW 12 19 30.17 1022 10 16 0.00 0.00
4:53 pm 16:53 Sunny 52 11.1 26 -3.3 37 37 NNW 7 11 30.16 1021 10 16 0.00 0.00
5:53 pm 17:53 Sunny 47 8.3 28 -2.2 48 48 NNW 5 7 30.17 1022 10 16 0.00 0.00
6:53 pm 18:53 Clear 44 6.7 29 -1.7 55 55 NW 3 6 30.19 1022 10 16 0.00 0.00
7:53 pm 19:53 Clear 44 6.7 28 -2.2 53 53 Calm 30.20 1023 10 16 0.00 0.00
8:53 pm 20:53 Clear 41 5 28 -2.2 60 60 Calm 30.21 1023 10 16 0.00 0.00
9:53 pm 21:53 Clear 35 1.7 28 -2.2 76 76 Calm 30.22 1023 10 16 0.00 0.00
10:53 pm 22:53 Clear 33 0.6 28 -2.2 82 82 Calm 30.23 1024 10 16 0.00 0.00
11:53 pm 23:53 Clear 31 -0.6 27 -2.8 85 85 Calm 30.23 1024 10 16 0.00 0.00

Powered by AerisWeather